When you browse on this site, cookies collect data to enhance your experience and personalize the content and advertising you see.
Visit our Privacy Policy to learn more. By continuing to use the site, you agree to this use of cookies and data.
  • en Belgique
  • Liste des pays
  • À 7 jours
  • Température de l'eau
  • Carte satellitaire
  • Carte météo
  • Widgets météo
  • user-avatar
    Se connecter

    Météo par heure à Arlon

    Ce jour, 23 Février, Samedi

    Heure Température Précipitation Vent Pression Humidité
    00:00 +4°C° 0 mm 3 m/s 746 mmHg 92%
    01:00 +4°C° 0 mm 3 m/s 745 mmHg 93%
    02:00 +3°C° 0 mm 3 m/s 745 mmHg 94%
    03:00 +3°C° 0 mm 3 m/s 745 mmHg 95%
    04:00 +3°C° 0 mm 3 m/s 745 mmHg 94%
    05:00 +2°C° 0 mm 3 m/s 745 mmHg 94%
    06:00 +2°C° 0 mm 3 m/s 745 mmHg 94%
    07:00 +1°C° 0 mm 4 m/s 745 mmHg 88%
    08:00 +3°C° 0 mm 4 m/s 745 mmHg 82%
    09:00 +4°C° 0 mm 4 m/s 745 mmHg 76%
    10:00 +5°C° 0 mm 5 m/s 745 mmHg 67%
    11:00 +7°C° 0 mm 5 m/s 745 mmHg 58%
    12:00 +8°C° 0 mm 5 m/s 745 mmHg 49%
    13:00 +8°C° 0 mm 5 m/s 745 mmHg 48%
    14:00 +8°C° 0 mm 5 m/s 745 mmHg 47%
    15:00 +8°C° 0 mm 5 m/s 745 mmHg 47%
    16:00 +7°C° 0 mm 4 m/s 745 mmHg 49%
    17:00 +5°C° 0 mm 4 m/s 745 mmHg 51%
    18:00 +4°C° 0 mm 4 m/s 745 mmHg 53%
    19:00 +3°C° 0 mm 4 m/s 745 mmHg 53%
    20:00 +3°C° 0 mm 4 m/s 745 mmHg 53%
    21:00 +1°C° 0 mm 4 m/s 745 mmHg 53%
    22:00 +1°C° 0 mm 4 m/s 745 mmHg 51%
    23:00 +1°C° 0 mm 4 m/s 745 mmHg 50%

    Demain, 24 Février, Dimanche

    Heure Température Précipitation Vent Pression Humidité
    00:00 0°C° 0 mm 4 m/s 745 mmHg 49%
    01:00 +1°C° 0 mm 3 m/s 745 mmHg 47%
    02:00 +1°C° 0 mm 3 m/s 745 mmHg 46%
    03:00 +1°C° 0 mm 3 m/s 745 mmHg 45%
    04:00 +1°C° 0 mm 3 m/s 745 mmHg 44%
    05:00 0°C° 0 mm 3 m/s 746 mmHg 43%
    06:00 0°C° 0 mm 3 m/s 746 mmHg 43%
    07:00 +2°C° 0 mm 3 m/s 746 mmHg 41%
    08:00 +3°C° 0 mm 3 m/s 746 mmHg 40%
    09:00 +4°C° 0 mm 4 m/s 747 mmHg 38%
    10:00 +5°C° 0 mm 4 m/s 747 mmHg 38%
    11:00 +8°C° 0 mm 3 m/s 747 mmHg 37%
    12:00 +10°C° 0 mm 3 m/s 747 mmHg 37%
    13:00 +10°C° 0 mm 3 m/s 747 mmHg 39%
    14:00 +10°C° 0 mm 3 m/s 747 mmHg 41%
    15:00 +11°C° 0 mm 3 m/s 746 mmHg 43%
    16:00 +9°C° 0 mm 3 m/s 746 mmHg 46%
    17:00 +8°C° 0 mm 3 m/s 746 mmHg 49%
    18:00 +5°C° 0 mm 3 m/s 746 mmHg 52%
    19:00 +5°C° 0 mm 3 m/s 746 mmHg 52%
    20:00 +4°C° 0 mm 3 m/s 747 mmHg 51%
    21:00 +4°C° 0 mm 3 m/s 747 mmHg 51%
    22:00 +3°C° 0 mm 3 m/s 747 mmHg 51%
    23:00 +3°C° 0 mm 3 m/s 747 mmHg 51%

    Après-demain, 25 Février, Lundi

    Heure Température Précipitation Vent Pression Humidité
    00:00 +3°C° 0 mm 3 m/s 747 mmHg 51%
    01:00 +3°C° 0 mm 3 m/s 747 mmHg 51%
    02:00 +3°C° 0 mm 3 m/s 746 mmHg 51%
    03:00 +3°C° 0 mm 3 m/s 746 mmHg 51%
    04:00 +2°C° 0 mm 3 m/s 746 mmHg 51%
    05:00 +2°C° 0 mm 3 m/s 746 mmHg 52%
    06:00 +2°C° 0 mm 3 m/s 746 mmHg 52%
    07:00 +4°C° 0 mm 3 m/s 747 mmHg 52%
    08:00 +5°C° 0 mm 3 m/s 747 mmHg 52%
    09:00 +7°C° 0 mm 3 m/s 747 mmHg 52%
    10:00 +9°C° 0 mm 3 m/s 747 mmHg 51%
    11:00 +11°C° 0 mm 4 m/s 747 mmHg 51%
    12:00 +13°C° 0 mm 4 m/s 747 mmHg 51%
    13:00 +13°C° 0 mm 4 m/s 747 mmHg 52%
    14:00 +13°C° 0 mm 4 m/s 746 mmHg 54%
    15:00 +14°C° 0 mm 4 m/s 746 mmHg 56%
    16:00 +12°C° 0 mm 3 m/s 746 mmHg 61%
    17:00 +10°C° 0 mm 3 m/s 746 mmHg 66%
    18:00 +8°C° 0 mm 3 m/s 746 mmHg 72%
    19:00 +8°C° 0 mm 3 m/s 746 mmHg 71%
    20:00 +7°C° 0 mm 3 m/s 746 mmHg 70%
    21:00 +7°C° 0 mm 3 m/s 746 mmHg 70%
    22:00 +7°C° 0 mm 3 m/s 746 mmHg 69%
    23:00 +5°C° 0 mm 3 m/s 746 mmHg 69%

    26 Février, Mardi

    Heure Température Précipitation Vent Pression Humidité
    00:00 +5°C° 0 mm 3 m/s 746 mmHg 69%
    01:00 +5°C° 0 mm 3 m/s 745 mmHg 70%
    02:00 +5°C° 0 mm 2 m/s 745 mmHg 71%
    03:00 +5°C° 0 mm 2 m/s 745 mmHg 72%
    04:00 +5°C° 0 mm 2 m/s 745 mmHg 73%
    05:00 +5°C° 0 mm 2 m/s 745 mmHg 73%
    06:00 +4°C° 0 mm 2 m/s 744 mmHg 74%
    07:00 +6°C° 0 mm 2 m/s 745 mmHg 70%
    08:00 +7°C° 0 mm 2 m/s 745 mmHg 65%
    09:00 +9°C° 0 mm 2 m/s 746 mmHg 61%
    10:00 +10°C° 0 mm 2 m/s 745 mmHg 57%
    11:00 +12°C° 0 mm 3 m/s 745 mmHg 53%
    12:00 +13°C° 0 mm 3 m/s 745 mmHg 50%
    13:00 +14°C° 0 mm 3 m/s 745 mmHg 50%
    14:00 +15°C° 0 mm 2 m/s 745 mmHg 51%
    15:00 +15°C° 0 mm 2 m/s 744 mmHg 51%
    16:00 +14°C° 0 mm 2 m/s 744 mmHg 56%
    17:00 +12°C° 0 mm 2 m/s 744 mmHg 61%
    18:00 +9°C° 0 mm 2 m/s 744 mmHg 66%
    19:00 +9°C° 0 mm 2 m/s 744 mmHg 67%
    20:00 +8°C° 0 mm 2 m/s 744 mmHg 68%
    21:00 +7°C° 0 mm 2 m/s 744 mmHg 70%
    22:00 +8°C° 0 mm 1 m/s 743 mmHg 69%
    23:00 +8°C° 0 mm 1 m/s 743 mmHg 68%

    27 Février, Mercredi

    Heure Température Précipitation Vent Pression Humidité
    00:00 +7°C° 0 mm 1 m/s 743 mmHg 67%
    01:00 +7°C° 0 mm 1 m/s 743 mmHg 67%
    02:00 +7°C° 0 mm 1 m/s 742 mmHg 66%
    03:00 +7°C° 0 mm 1 m/s 742 mmHg 65%
    04:00 +6°C° 0 mm 1 m/s 742 mmHg 66%
    05:00 +6°C° 0 mm 1 m/s 742 mmHg 66%
    06:00 +6°C° 0 mm 1 m/s 741 mmHg 66%
    07:00 +7°C° 0 mm 1 m/s 742 mmHg 63%
    08:00 +9°C° 0 mm 1 m/s 742 mmHg 60%
    09:00 +10°C° 0 mm 1 m/s 742 mmHg 57%
    10:00 +12°C° 0 mm 1 m/s 742 mmHg 53%
    11:00 +14°C° 0 mm 1 m/s 741 mmHg 49%
    12:00 +15°C° 0 mm 1 m/s 741 mmHg 46%
    13:00 +15°C° 0 mm 1 m/s 741 mmHg 46%
    14:00 +16°C° 0 mm 1 m/s 740 mmHg 46%
    15:00 +16°C° 0 mm 1 m/s 740 mmHg 47%
    16:00 +13°C° 0 mm 0 m/s 740 mmHg 52%
    17:00 +11°C° 0 mm 0 m/s 739 mmHg 58%
    18:00 +9°C° 0 mm 0 m/s 739 mmHg 64%
    19:00 +9°C° 0 mm 0 m/s 739 mmHg 65%
    20:00 +8°C° 0 mm 0 m/s 739 mmHg 67%
    21:00 +8°C° 0 mm 0 m/s 739 mmHg 68%
    22:00 +7°C° 0 mm 0 m/s 739 mmHg 69%
    23:00 +7°C° 0 mm 0 m/s 739 mmHg 70%

    28 Février, Jeudi

    Heure Température Précipitation Vent Pression Humidité
    00:00 +7°C° 0 mm 0 m/s 739 mmHg 72%
    01:00 +7°C° 0 mm 1 m/s 738 mmHg 73%
    02:00 +7°C° 0 mm 1 m/s 738 mmHg 74%
    03:00 +7°C° 0 mm 1 m/s 738 mmHg 75%
    04:00 +6°C° 0 mm 1 m/s 738 mmHg 76%
    05:00 +6°C° 0 mm 1 m/s 738 mmHg 76%
    06:00 +6°C° 0 mm 1 m/s 738 mmHg 77%
    07:00 +7°C° 0 mm 1 m/s 738 mmHg 73%
    08:00 +9°C° 0 mm 1 m/s 738 mmHg 69%
    09:00 +10°C° 0 mm 1 m/s 738 mmHg 65%
    10:00 +12°C° 0 mm 2 m/s 738 mmHg 62%
    11:00 +14°C° 0 mm 2 m/s 738 mmHg 59%
    12:00 +14°C° 0 mm 3 m/s 738 mmHg 56%
    13:00 +14°C° 0 mm 3 m/s 738 mmHg 57%
    14:00 +16°C° 0 mm 3 m/s 737 mmHg 57%
    15:00 +16°C° 0 mm 3 m/s 737 mmHg 58%
    16:00 +13°C° 0 mm 3 m/s 737 mmHg 66%
    17:00 +11°C° 0 mm 3 m/s 737 mmHg 75%
    18:00 +9°C° 0 mm 2 m/s 737 mmHg 83%
    19:00 +9°C° 0 mm 2 m/s 737 mmHg 85%
    20:00 +8°C° 0 mm 2 m/s 737 mmHg 88%
    21:00 +7°C° 0 mm 2 m/s 737 mmHg 91%
    22:00 +7°C° 0 mm 2 m/s 737 mmHg 92%
    23:00 +6°C° 0 mm 2 m/s 737 mmHg 92%
    Voir plus